Вернуться в каталог

STARLINK-36688

АктивенСвязьSSO
NORAD 67656·PAYLOAD·🇺🇸 United States

Запущен Feb 2, 2026 с Vandenberg Space Force Base

Loading…

Ближайшие Пролёты (ближайшие 24 часа)

TLE

СвежийSource: CelesTrak SupGP

Эпоха: Sep 15, 2026, 03:15 UTC

1 67656C 26022J   26258.13590278 -.00040794  00000+0 -12663-2 0  2583
2 67656  97.2843 289.8349 0000964  94.1986  96.3334 15.33460739    14

Отслеживайте STARLINK-36688 в реальном времени с AllMySat

Download on the App Store